SL-14 DEB, 45459

Orbit data source: Space-Track

SL-14 DEB, 45459 is space debris in LEO originally from a launch on Thu, 15 Aug 1991 UTC launched from the Plesetsk Missile And Space Complex (PKMTR). Debris objects in space refer to the collection of defunct objects orbiting the Earth. Examples of debris include non-operational satellites, rocket bodies, and fragments generated from explosions, collisions, or faulty payload assembly.

Loading next visibility...
Identifier
45459, 1991-056CT
Orbit
LEO
Last TLE update
9 months ago
Origin
Manufacturer
Unknown
Mission
Spacecraft
Bus & Motor
Unknown
Mass
Unknown
Launch date (UTC)
1991-08-15 (34 years ago)
Launch vehicle
Unknown
Launch site
Plesetsk Missile And Space Complex (PKMTR)
Object type
Payload
Rocket body
Debris
Shape & HBR
Unknown
Radar Cross Section
Small (<0.1 m²)

Expand to show TLE details & history

TLE from 9 months ago
0 SL-14 DEB
1 45459U 91056CT  24271.15697152  .00030206  00000-0  33352-1 0  9998
2 45459  82.5965 172.7889 0223762  22.6898 338.3953 13.61486476227497
Epoch: 2024-09-27T03:46Z
TLE epoch observation values (Epoch: 2024-09-27T03:46:02.339Z)
Latitude
-0.00003°
Longitude
109.84701°
Altitude
879.53 km
Speed
7.489 km/s
True Right ascension
11h 31m 09s
True Declination
0° 00' 00"
Sunlit
Object was in daylight at epoch
Visualization orbit readout
Latitude
-22.26455°
Longitude
79.06419°
Altitude
1,092.761 km
Speed
7.243 km/s
Apparent Right ascension
11h 06m 09s
Apparent Declination
-33° 51' 60"
Sunlit
Object is in daylight
Visualization observer readout
Local Sidereal Time
01:29:42
Azimuth
89.502° E
Elevation
-60.87°
Doppler factor
1
Orbital elements
Apogee altitude
1,193.183 km
Perigee altitude
861.764 km
Semi-major axis
7,405.611 km
Eccentricity
0.02238
Inclination
82.5965°
RAAN
172.7889°
Arg. of periapsis
22.6898°
True anomaly
Unknown
Mean anomaly
338.3953°
Eccentric anomaly
Unknown
Mean motion
3.40566 °/min
Orbital period
105.71 mins
BSTAR
0.033352
Loading maneuver chart data...
Loading SW <> Apogee altitude chart data...
Loading historical data...
Loading historical data...
Loading historical data...
Loading historical data...
Loading historical data...
Loading historical data...
Loading historical data...

SL-14 DEB Visibility forecast

Observer location: undefined°, undefined°

Span
Click to sort rows by Start time (UTC) header in descending order
Start Az.
Max El. time (UTC)
Max El. Az.
Max El.
End time (UTC)
End Az.
12 mins2025-07-01 20:22:42.323Z5.743° NNE2025-07-01 20:28:42.323Z74.257° E35.426°2025-07-01 20:34:42.323Z146.827° SSE
9 mins2025-07-01 22:09:42.323Z320.956° NNW2025-07-01 22:13:42.323Z272.642° WNW26.542°2025-07-01 22:18:42.323Z219.54° SW
10 mins2025-07-02 09:50:42.323Z185.091° SSW2025-07-02 09:54:42.323Z168.528° S44.884°2025-07-02 10:00:42.323Z7.971° NNE
|